Regional Weather Roundup
Issued by NWS Wakefield, VA

Home | Current Version | Previous Version | Graphics & Text | Print | Product List | Glossary On
Versions: 1 2 3 4 5 6 7 8 9 10 11 12 13 14 15 16 17 18 19 20 21 22 23 24 25 26 27 28 29 30 31 32 33 34 35 36 37 38 39 40 41 42 43 44 45 46 47 48 49
000
ASUS41 KAKQ 082215
RWRAKQ

REGIONAL WEATHER ROUNDUP
NATIONAL WEATHER SERVICE WAKEFIELD VA
500 PM EST MON FEB 08 2016

Note: "fair" indicates few or no clouds below 12,000 feet with no
significant weather and/or obstructions to visibility. * = Denotes
station may not report precipitation (e.g., rain,snow,etc.),
thunder or fog.

VAZ042-051-052>054-056-082300-
NORTHERN VIRGINIA

CITY           SKY/WX    TMP DP  RH WIND       PRES   REMARKS
WASH NATIONAL  CLOUDY    45  29  53 S6        29.70R
DULLES         CLOUDY    44  26  49 SE8       29.66F
FORT BELVOIR   MOCLDY    45  27  49 SE6       29.68S
QUANTICO       CLOUDY    44  30  57 SE13      29.69F
FREDERICKSBRG* FAIR      45  31  57 E9        29.67S
STAFFORD*      MOCLDY    43  29  57 E9        29.71S
WARRENTON      CLOUDY    46  30  53 E7        29.65S
CULPEPER*      CLOUDY    45  24  44 CALM      29.66S
MANASSAS*      PTCLDY    45  28  53 SE7       29.67S
LEESBURG*      CLOUDY    46  30  53 SE6       29.67R
WINCHESTER     CLOUDY    43  25  49 SE8       29.63S
FRONT ROYAL*   CLOUDY    43  23  45 SE7       29.61S
LURAY*         CLOUDY    45  25  45 S3        29.61S
$$

VAZ048-049-060>072-079>083-082300-
CENTRAL AND SOUTH CENTRAL VIRGINIA

CITY           SKY/WX    TMP DP  RH WIND       PRES   REMARKS
RICHMOND       CLOUDY    45  28  51 SE8       29.68S
CHESTERFIELD*  CLOUDY   N/A N/A N/A SE6       29.68R
PETERSBURG*    CLOUDY    49  17  27 SE3       29.69R
HANOVER        CLOUDY    46  25  43 SE5       29.69R
TAPPAHANNOCK*  MOCLDY    45  32  60 E6        29.70R
QUINTON*       CLOUDY    46  30  55 S5        29.68S
CHARLOTTSVILLE CLOUDY    46  23  40 S7        29.64R
GORDONSVILLE*  CLOUDY    46  25  44 CALM      29.65R
ORANGE*        CLOUDY    46  23  39 CALM      29.67S
LOUISA*        CLOUDY    46  25  42 SE6       29.65R
BUMPASS*       CLOUDY    46  24  42 MISG      29.66S
FARMVILLE*     CLOUDY    48  29  48 SW9       29.66R
CREWE*         CLOUDY    48  29  47 S5        29.67R
FORT PICKETT*  CLOUDY    47  28  47 S9        29.67R
CHASE CITY*    CLOUDY    46  32  57 SW3       29.67R
CLARKSVILLE*   CLOUDY    46  34  61 S10       29.66S
SOUTH HILL*    CLOUDY    48  30  49 CALM      29.71S
LAWRENCEVILLE* CLOUDY    48  31  52 CALM      29.67R
EMPORIA*       CLOUDY    48  28  46 E7        29.70R
$$

VAZ088>098-082300-
SOUTHEAST VIRGINIA

CITY           SKY/WX    TMP DP  RH WIND       PRES   REMARKS
NORFOLK        MOCLDY    42  32  67 SE7       29.72S
VIRGINIA BEACH MOCLDY    45  33  63 E9        29.73S
NORFOLK NAVAL  MOCLDY    43  32  65 SE10      29.74S
WEST POINT*    MOCLDY    43  32  66 E8        29.72R
SALUDA*        CLOUDY    39  34  81 SE5       29.72S
NEWPORT NEWS   MOCLDY    42  34  73 E13       29.72S
LANGLEY AFB    MOCLDY    42  34  74 SE10      29.71F
FORT EUSTIS    CLOUDY    44  29  57 E7        29.69F
WILLIAMSBURG*  MOCLDY    46  36  66 SE3       29.72R
HR EXEC AP*    FAIR      45  34  65 SE12      29.73S
FRANKLIN*      FAIR      48  28  45 SE5       29.70F
US460-WAKEFLD  MOCLDY    49  26  41 CALM      29.69S
$$

VAZ020-022-025-037-045-082300-
WEST CENTRAL AND SOUTHWEST VIRGINIA

CITY           SKY/WX    TMP DP  RH WIND       PRES   REMARKS
STAUNTON*      CLOUDY    47  28  47 S7        29.64R
WAYNESBORO*    CLOUDY    41  25  52 S12       29.63R
HOT SPRINGS VA MIX PCPN  32  32 100 SW7       29.53S
LYNCHBURG      LGT RAIN  40  34  79 SW5       29.66S
DANVILLE       CLOUDY    46  32  58 SW7       29.66S
SOUTH BOSTON*  CLOUDY    45  35  70 S8        29.67R
MARTINSVILLE   CLOUDY    38  33  82 CALM      29.68S
ROANOKE        LGT RAIN  38  35  89 W5        29.66S FOG
BLACKSBURG     CLOUDY    34  33  94 CALM      29.63S
DUBLIN*        CLOUDY    38  35  88 SW7       29.61S
MARION*        SNOW      34  32  93 W13G20    29.63R VSB<1/4 WCI  25
HILLSVILLE*    FAIR      34  32  91 CALM      29.58S
RICHLANDS*     SNOW      31  29  91 NW9G17    29.62R VSB 1/2
WISE*          CLOUDY    32  25  74 W10       29.64R WCI  24
ABINGDON*      CLOUDY    35  31  84 W5        29.65R
$$

MDZ021>025-VAZ099-100-082300-
SOUTHERN MARYLAND AND THE DELMARVA PENINSULA

CITY           SKY/WX    TMP DP  RH WIND       PRES   REMARKS
PATUXENT RIVER CLOUDY    41  31  67 SE9       29.71S
BAY BRIDGE APT   N/A     41  30  65 CALM      29.72R
LEONARDTOWN    CLOUDY    41  30  65 SE6       29.72S
DOVER          CLOUDY    41  32  69 E6        29.72R
GEORGETOWN     CLOUDY    40  33  76 SE9       29.74R
EASTON         CLOUDY    43  32  65 VRB5      29.75S
CAMBRIDGE      CLOUDY    41  32  70 CALM      29.72R
SALISBURY      CLOUDY    40  33  76 S8        29.74R
OCEAN CITY     CLOUDY    39  32  76 E9        29.75S
WALLOPS ISLAND CLOUDY    40  32  73 E8        29.75S
ACCOMACK*      CLOUDY    37  32  81 E6        29.74S
$$

NCZ012>017-030>032-082300-
NORTH CENTRAL AND EASTERN NORTH CAROLINA

CITY           SKY/WX    TMP DP  RH WIND       PRES   REMARKS
ROANOKE RAPIDS FAIR      50  30  46 S7        29.67S
RALEIGH        MOCLDY    51  29  42 W9        29.65S
ELIZABETH CITY CLOUDY    44  37  76 E10       29.73S
AHOSKIE*       CLOUDY    48  30  49 S6        29.70S
EDENTON*       CLOUDY    50  33  50 E6        29.72S
CURRITUCK*     CLOUDY    43  36  76 E5        29.75S
KILL DEVIL HLS CLOUDY    43  33  68 CALM      29.74R
MANTEO         CLOUDY    43  36  75 SE5       29.76R
CAPE HATTERAS  CLEAR     48  32  53 S3        29.75F
TARBORO*       FAIR      53  31  42 SE5       29.69F
GOLDSBORO      CLEAR     54  32  43 S5        29.63F
WASHINGTON     PTCLDY    52  30  43 CALM      29.69F
GREENVILLE     CLEAR     54  32  43 S9        29.72F
NEW BERN       CLOUDY    51  31  46 S10       29.70F
WILMINGTON     CLEAR     54  33  45 S9        29.69F
$$

VAZ048-082300-
ELSEWHERE

CITY           SKY/WX    TMP DP  RH WIND       PRES   REMARKS
HARRISBURG PA  CLOUDY    40  28  62 E7        29.68R
BALTIMORE      CLOUDY    41  29  62 E12       29.70R
ANNAPOLIS      CLOUDY    40  32  73 E6        29.71S
ANDREWS AFB    FAIR      42  30  62 SE9       29.68S
PHILADELPHIA   CLOUDY    42  25  50 E3        29.73S
HENDERSON NC   MOCLDY    47  31  52 SW8       29.66S
GREENSBORO     LGT RAIN  44  34  67 W6        29.64S
ROCKY MOUNT    MOCLDY    52  31  44 SE7       29.65F
$$

VAZ100-082300-
MARINE

STATION/POSITION TIME  TEMP    WIND        PRES    WAVE   SWELL
                       AIR SEA DIR/SP/G            HT/PER HT/PER
                 (UTC) (F)     (DEG/KT/KT) (MB)    (FT/S) (FT/S)
BRANDYWINE LGT   2100   40     250/  6/  7 1007.0R
CAPE MAY NJ      2100   38 42   70/  7/  9 1006.8R
LEWES DE         2100   39 41  110/  6/  8 1007.3R
15NM E FENWICK I 2150   38 44              1007.3R  14/12
OCEAN-CITY-INLET 2100   39 42   90/  6/  9 1006.7R
WACHAPREAGUE VA  2100   40 43   90/  9/ 11 1007.1F
THOMAS POINT MD  2200   40 39  120/  6/  6 1006.7S
GOOSES REEF MD   2200   40 40  140/  8/  8 1007.0F   0
COVE POINT MD    2100   39     180/  5/  6 1006.9R
SOLOMONS ISLAND  2100   42 42  110/  7/  8   N/A
BISHOPS HEAD MD  2100   41 41     CALM     1005.6R
PINEY POINT MD   2100          160/ 10/ 11   N/A
POTOMAC MD       2200   40 41  160/ 10/ 12 1005.3S
CAMBRIDGE MD     2100   41 40  340/  5/  6 1005.4R
LEWISETTA VA     2100   41 41  120/  9/ 10 1006.0R
RAPPAHANNOCK LGT 2100           90/  4/  5 1007.1R
STINGRAY PT      2200   41 42  130/ 12/ 14 1006.2F   1
YORK RVR RNG VA  2100   41     130/ 11/ 12 1005.9R
YORKTOWN VA      2100   42 43  120/  9/ 11 1006.2R
JAMESTOWN VA     2200   43 44  100/  8/ 10   N/A     0
DOMINION TERM VA 2100   42      80/ 12/ 15 1006.3R
KIPTOPEKE VA     2100      44  110/  6/ 10   N/A
CHES BAY BRIDGE  2100   42 44   80/  9/ 12 1006.4R
CAPE HENRY VA    2100   41      90/  9/ 10   N/A
CHESAPEAKE LGHT  2100   41      60/  8/  9 1007.6F
WILLOUBY STN VA  2100   41     100/ 12/ 14   N/A
CAPE HENRY BUOY  2158      45                N/A     8/13   7/13
1ST LANDING BUOY 2200      44                N/A     6/ 7
CAPE CHARLES BUO 2156      44                N/A     9/13   7/13
OFFSHORE WE BUOY 2151      46                N/A    11/14   8/14
64NM E OF VA BCH 2150   44 52  340/  8/ 10 1006.6F  15/14  15/14
DUCK PIER NC     2100   44      70/  6/  7 1006.5F
44100 DUCK FRF   2154      47                N/A    13/14  11/14
44056 DUCK FRF   2141      44                N/A    12/15  10/15
OREGON INLET NC  2100   44 45   90/  4/  6 1007.4F
HATTERAS NC      2100   49 51  280/  4/  5 1007.2F
DIAMOND SHLS NC  2150   50 74  340/  4/  8 1007.8F  12/16  11/16C1F1C2F2C3F3C4F4C5F5C6F6C7F7C8M1C9!


USA.gov is the U.S. government's official web portal to all federal, state and local government web resources and services.